|
NORAD ID: 858 Int'l Code: 1964-047A
Perigee: 35,790.1 km
Apogee: 35,806.1 km
Inclination: 3.6 °
Period: 1,436.3 minutes
Semi major axis: 42169 km
Launch date: August 19, 1964
Source: United States (US)
Two Line Element Set (TLE):
1 00858U 64047A 13137.70020801 -.00000052 00000-0 10000-3 0 5072
2 00858 003.5946 295.3229 0001898 140.7902 219.1781 01.00256263140842
Source:
NASA's NSSDC Master Catalog entry for SYNCOM 3
|